Location: Newark
(50.4348°N, 30.5552°E)
Time: 13:40:36
(UTC+00:00)

Courier 1B Rocket - Pass Details

Date: 31 January 2020
Orbit: 920 x 1202 km, 28.2° (Epoch: 24 February)

Event Time Altitude Azimuth Distance (km) Brightness Sun altitude
Rises 08:36:32 0° 226° (SW) 4,048 8.5 19.0°
Reaches altitude 10° 08:41:50 10° 197° (SSW) 3,032 8.5 19.3°
Maximum altitude 08:44:07 12° 178° (S) 2,886 9.1 19.4°
Drops below altitude 10° 08:46:23 10° 160° (SSE) 2,974 10.0 19.6°
Sets 08:51:25 0° 130° (SE) 3,856 9.1 19.8°
